📊 Raw Sensor Data

Showing records 52476 to 52500 of 85,288 total

ID Distance (ft) Battery V Battery A Int Temp (°F) Int Humid (%) Ext Temp (°F) Solar V RSSI SNR Time Stamp
32825 13.6 3.71 0 61 35 59 5.10 -82 7 02/19/2025 10:00 AM
32824 13.6 3.71 0 61 35 60 5.10 -78 7 02/19/2025 09:45 AM
32823 13.5 3.71 0 58 35 60 5.10 -80 7 02/19/2025 09:30 AM
32822 13.5 3.71 0 56 36 59 5.10 -78 8 02/19/2025 09:15 AM
32821 13.5 3.71 0 55 36 55 5.10 -79 7 02/19/2025 09:00 AM
32820 13.5 3.71 0 53 36 55 5.10 -80 8 02/19/2025 08:45 AM
32819 13.4 3.99 66 51 36 52 4.50 -80 8 02/19/2025 08:30 AM
32818 13.4 3.82 14 50 36 51 4.50 -81 8 02/19/2025 08:15 AM
32817 13.4 3.78 9 49 36 50 4.50 -80 7 02/19/2025 08:00 AM
32816 13.4 3.78 6 48 37 49 4.50 -81 8 02/19/2025 07:45 AM
32815 13.4 3.76 0 48 36 49 4.50 -81 7 02/19/2025 07:30 AM
32814 13.4 3.77 9 47 37 49 4.50 -82 8 02/19/2025 07:15 AM
32813 13.4 3.75 -7 46 37 47 4.50 -82 8 02/19/2025 07:00 AM
32812 13.4 3.70 -5 45 38 46 1.10 -80 8 02/19/2025 06:45 AM
32811 13.4 3.69 -5 45 38 46 0.00 -81 8 02/19/2025 06:30 AM
32810 13.4 3.74 -5 46 38 46 0.00 -81 8 02/19/2025 06:15 AM
32809 13.3 3.70 -5 46 38 47 0.00 -81 8 02/19/2025 06:00 AM
32808 13.4 3.72 -5 46 38 47 0.00 -80 7 02/19/2025 05:45 AM
32807 13.4 3.76 -5 46 38 47 0.00 -80 6 02/19/2025 05:30 AM
32806 13.3 3.72 -5 47 38 47 0.10 -80 8 02/19/2025 05:15 AM
32805 13.3 3.72 -5 47 38 48 0.10 -81 8 02/19/2025 05:00 AM
32804 13.3 3.72 -5 48 38 49 0.00 -79 8 02/19/2025 04:45 AM
32803 13.3 3.71 -5 48 38 49 0.00 -81 7 02/19/2025 04:30 AM
32802 13.3 3.76 -5 49 38 50 0.00 -81 8 02/19/2025 04:15 AM
32801 13.3 3.76 -5 49 38 50 0.00 -81 7 02/19/2025 04:00 AM